Location: Acton
(51.4942°N, 0.2232°W)
Time: 15:29:05
(UTC+00:00)

USA 234 - Pass Details

Date: 18 September 2020
Orbit: 1102 x 1106 km, 123.0° (Epoch: 16 October)

Event Time Altitude Azimuth Distance (km) Brightness Sun altitude
Exits shadow 20:19:21 - 61° (ENE) 3,223 5.4 -20.3°
Reaches altitude 10° 20:20:03 10° 63° (ENE) 2,968 5.2 -20.4°
Maximum altitude 20:26:26 53° 140° (SE) 1,332 3.3 -21.3°
Drops below altitude 10° 20:32:48 10° 216° (SW) 2,958 5.5 -22.1°
Sets 20:35:21 0° 221° (SW) 3,914 6.2 -22.4°
